787  
ASUS46 KSTO 240615  
RWRCA  
 
NORTHERN AND CENTRAL CA REGIONAL WEATHER ROUNDUP  
NATIONAL WEATHER SERVICE SACRAMENTO CA  
1000 PM PST THU JAN 23 2020  
 
NOTE: FAIR INDICATES FEW OR NO CLOUDS BELOW 12,000 FEET WITH NO  
SIGNIFICANT WEATHER AND/OR S TO VISIBILITY
.  
 
CAZ001-003-240700-  
NORTHWEST AREA  
 
CITY SKY/WX TMP DP RH WIND PRES REMARKS
 
CRESCENT CITY LGT RAIN 50 50 100 S18G26 30.02S  
UKIAH PTCLDY 48 46 93 CALM 30.14R  

 
 
CAZ006-505>513-240700-  
BAY AREA  
 
CITY SKY/WX TMP DP RH WIND PRES REMARKS
 
SANTA ROSA CLEAR 47 46 97 CALM 30.14F  
SAN RAFAEL N/A MM MM MM MISG  
NAPA MOCLDY 48 46 93 E3 30.15S  
CONCORD MOCLDY 51 49 92 CALM 30.15S  
OAKLAND CITY N/A 55 MM MM MISG  
OAKLAND MOCLDY 55 49 80 N3 30.15S  
SAN FRAN CITY N/A 55 MM 76 MISG  
SAN FRAN ARPT MOCLDY 54 49 83 SE5 30.14S  
LIVERMORE CLOUDY 50 48 93 CALM 30.15R  
HAYWARD MOCLDY 53 49 86 E6 30.14S  
SAN JOSE ARPT CLOUDY 53 48 83 NW6 30.16R  

 
CAZ034-037-514>518-240700-  
CENTRAL COAST  
 
CITY SKY/WX TMP DP RH WIND PRES REMARKS
 
WATSONVILLE MOCLDY 53 51 93 CALM 30.14R  
SALINAS PTCLDY 52 48 86 NW3 30.15R  
MONTEREY PTCLDY 55 50 83 S3 30.15R  
SAN LUIS OBISP CLEAR 54 50 86 CALM 30.08F  
SANTA MARIA PTCLDY 51 47 86 CALM 30.10R  

 
CAZ015-016-240700-  
NORTHERN SACRAMENTO VALLEY  
 
CITY SKY/WX TMP DP RH WIND PRES REMARKS
 
REDDING CLOUDY 49 47 93 CALM 30.12F  
RED BLUFF MOCLDY 49 47 93 CALM 30.13F FOG  
OROVILLE CLOUDY 52 49 89 CALM 30.15F  

 
CAZ016>018-240700-  
SOUTHERN SACRAMENTO VALLEY  
 
CITY SKY/WX TMP DP RH WIND PRES REMARKS
 
AUBURN CLOUDY 52 50 93 CALM 30.15S  
BEALE AFB CLOUDY 50 49 94 CALM 30.14S  
LINCOLN FAIR 48 48 100 CALM 30.15R  
MARYSVILLE CLOUDY 50 49 96 CALM 30.15S FOG  
SAC INTL ARPT CLOUDY 50 49 96 CALM 30.15R  
MATHER AIRPORT MOCLDY 52 52 100 CALM 30.14R  
DOWNTOWN SAC N/A 53 MM MM MISG  
SAC EXEC ARPT CLOUDY 52 49 89 CALM 30.16R  
VACAVILLE MOCLDY 49 46 90 CALM 30.16S  
TRAVIS AFB CLOUDY 48 45 88 CALM 30.14F  

 
CAZ019>021-240700-  
SAN JOAQUIN VALLEY  
 
CITY SKY/WX TMP DP RH WIND PRES REMARKS
 
STOCKTON CLOUDY 52 49 89 CALM 30.14S FOG  
MODESTO CLOUDY 53 49 86 CALM 30.15R  
MERCED MOCLDY 50 48 93 CALM 30.14S FOG  
LEMOORE MOCLDY 48 46 93 S3 30.15F FOG  
FRESNO CLOUDY 53 49 86 CALM 30.15F  
HANFORD PTCLDY 49 48 97 S5 30.16F FOG  
PORTERVILLE CLOUDY 55 50 83 CALM 30.18R  
BAKERSFIELD CLEAR 50 44 80 N5 30.14S  

 
CAZ011-012-071-240700-  
NORTHERN MOUNTAINS  
 
CITY SKY/WX TMP DP RH WIND PRES REMARKS
 
YREKA CLOUDY 43 41 93 N5 30.03F  
MOUNT SHASTA CLOUDY 40 39 97 VRB3 30.07F  
ALTURAS CLOUDY 41 39 93 SE3 30.09F  

 
CAZ011-012-071-240700-  
SIERRA NEVADA MTNS  
 
CITY SKY/WX TMP DP RH WIND PRES REMARKS
 
BLUE CANYON LGT RAIN 42 39 89 S6 30.20R  
TRUCKEE CLOUDY 41 34 75 S6 30.17F  
TAHOE VLY ARPT LGT RAIN 38 34 85 SW3 30.18S  
MAMMOTH LAKES CLOUDY 32 25 74 N5 30.24S WCI 27  

 
 
 
CLICK HERE TO GO TO PREVIOUS BULLETINS.

The Nexlab CA Page Main Text Page